Printer-friendly version

IAU Minor Planet Center

Minor Planet Center

MPEC 2000-O15: 2000 OG

The following Minor Planet Electronic Circular may be linked-to from your own Web pages, but must not otherwise be redistributed electronically.


Read MPEC 2000-O14 Read MPEC 2000-O16


M.P.E.C. 2000-O15                                Issued 2000 July 23, 19:15 UT

     The Minor Planet Electronic Circulars contain information on unusual
         minor planets and routine data on comets.  They are published
   on behalf of Commission 20 of the International Astronomical Union by the
          Minor Planet Center, Smithsonian Astrophysical Observatory,
                          Cambridge, MA 02138, U.S.A.

             Prepared using the Tamkin Foundation Computer Network

             BMARSDEN@CFA.HARVARD.EDU or GWILLIAMS@CFA.HARVARD.EDU
          URL http://cfa-www.harvard.edu/iau/mpc.html  ISSN 1523-6714

                                    2000 OG

Observations:
     K00O00G* C2000 07 21.22796 17 42 38.20 +54 57 09.9          17.1        704
     K00O00G  C2000 07 21.24076 17 42 31.90 +54 57 40.9          17.6        704
     K00O00G  C2000 07 21.27916 17 42 13.09 +54 59 13.1                      704
     K00O00G  C2000 07 21.86649 17 37 27.28 +55 23 05.1          16.8 V      611
     K00O00G  C2000 07 21.86789 17 37 26.55 +55 23 08.8                      611
     K00O00G  C2000 07 21.86900 17 37 25.90 +55 23 11.5          16.6 R      046
     K00O00G  C2000 07 21.86928 17 37 25.85 +55 23 12.2                      611
     K00O00G  C2000 07 21.86984 17 37 25.45 +55 23 13.8                      046
     K00O00G  C2000 07 21.87062 17 37 25.01 +55 23 15.6                      046
     K00O00G  C2000 07 21.87140 17 37 24.65 +55 23 17.8                      046
     K00O00G  C2000 07 21.87207 17 37 24.30 +55 23 19.1                      046
     K00O00G  C2000 07 21.87606 17 37 22.44 +55 23 28.6                      611
     K00O00G  C2000 07 21.88131 17 37 19.76 +55 23 41.1                      611
     K00O00G  C2000 07 21.88242 17 37 19.14 +55 23 43.5                      611
     K00O00G  C2000 07 22.09991 17 35 30.72 +55 32 30.5          16.5 V      739
     K00O00G  C2000 07 22.10137 17 35 29.95 +55 32 33.8          16.5 V      739
     K00O00G  C2000 07 22.10351 17 35 28.78 +55 32 39.0          16.7 V      739
     K00O00G  C2000 07 22.10773 17 35 26.64 +55 32 50.6          16.9 V      739
     K00O00G  C2000 07 22.11072 17 35 25.14 +55 32 56.9          17.0 V      739
     K00O00G  C2000 07 22.14273 17 35 08.58 +55 34 12.3          17.7 V      726
     K00O00G  C2000 07 22.14620 17 35 06.84 +55 34 19.6          17.7 V      726
     K00O00G  C2000 07 22.15129 17 35 04.22 +55 34 32.6          17.8 V      726
     K00O00G  C2000 07 22.15476 17 35 02.38 +55 34 40.3          17.6 V      726
     K00O00G  C2000 07 22.15822 17 35 00.64 +55 34 49.7          17.7 V      726
     K00O00G  C2000 07 22.16169 17 34 58.80 +55 34 57.4          17.4 V      726
     K00O00G  C2000 07 22.17581 17 34 51.91 +55 35 34.2          16.8        682
     K00O00G 1C2000 07 22.28515 17 33 55.45 +55 39 52.6                      658
     K00O00G 1C2000 07 22.28744 17 33 54.15 +55 39 57.6                      658
     K00O00G 1C2000 07 22.28922 17 33 53.38 +55 40 02.9                      658
     K00O00G  C2000 07 22.58242 17 31 21.70 +55 51 42.7                      900
     K00O00G  C2000 07 22.58793 17 31 18.62 +55 51 56.5          16.5 V      900
     K00O00G  C2000 07 22.59343 17 31 15.59 +55 52 09.1                      900
     K00O00G  C2000 07 22.86493 17 28 53.48 +56 02 44.2          16.3 V      151
     K00O00G  C2000 07 22.86663 17 28 52.79 +56 02 48.9          16.8 V      151
     K00O00G  C2000 07 22.86858 17 28 51.48 +56 02 55.6          16.5 V      151
     K00O00G  C2000 07 22.87235 17 28 49.50 +56 03 01.9          17.1 V      151
     K00O00G  C2000 07 22.87338 17 28 49.00 +56 03 04.9          16.6 V      151
     K00O00G  C2000 07 22.90027 17 28 34.29 +56 04 07.1          16.4        106
     K00O00G  C2000 07 22.90966 17 28 29.30 +56 04 30.0                      118
     K00O00G  C2000 07 22.91053 17 28 28.84 +56 04 31.8                      118
     K00O00G  C2000 07 22.91105 17 28 28.50 +56 04 32.5          16.1        106
     K00O00G  C2000 07 22.91150 17 28 28.32 +56 04 34.1                      118
     K00O00G  C2000 07 22.91294 17 28 27.53 +56 04 37.3          16.3 R      118
     K00O00G  C2000 07 22.92030 17 28 23.49 +56 04 54.0          16.2        106
     K00O00G  C2000 07 22.95999 17 28 02.02 +56 06 24.0                      557
     K00O00G  C2000 07 22.96116 17 28 01.35 +56 06 26.6                      557
     K00O00G  C2000 07 22.96233 17 28 00.77 +56 06 29.5                      557
     K00O00G  C2000 07 23.11806 17 26 38.37 +56 12 37.0          17.4 V      739
     K00O00G  C2000 07 23.12017 17 26 37.17 +56 12 41.6          17.1 V      739
     K00O00G  C2000 07 23.12286 17 26 35.71 +56 12 47.6          17.2 V      739
     K00O00G  C2000 07 23.16609 17 26 11.69 +56 14 24.8          15.6 V      726
     K00O00G  C2000 07 23.17303 17 26 08.07 +56 14 41.8          17.1 V      726
     K00O00G  C2000 07 23.17998 17 26 04.16 +56 14 57.6          17.0 V      726
     K00O00G  C2000 07 23.18345 17 26 02.33 +56 15 05.7          17.3 V      726
     K00O00G  C2000 07 23.28623 17 25 05.53 +56 19 04.7          17.8 V      719
     K00O00G  C2000 07 23.29159 17 25 02.55 +56 19 17.0          17.7 V      719

Observer details:
046 Klet.  Observers J. Ticha, M. Tichy.  0.57-m f/5.2 reflector + CCD.
106 Crni Vrh.  Observer J. Skvarc.  0.36-m f/6.7 Schmidt-Cassegrain + CCD.
118 Modra.  Observers S. Gajdos, J. Toth.  0.6-m f/5.5 reflector + CCD.
151 Eschenberg Observatory, Winterthur.  Observer M. Griesser.  0.25-m f/8.0
    reflector + CCD.
557 Ondrejov.  Observer P. Pravec.  0.65-m f/3.6 reflector + CCD.
611 Starkenburg.  Observers M. Busch, R. Kresken.  0.45-m f/4.4 reflector + CCD.
658 National Research Council of Canada.  Observer D. D. Balam.  1.82-m
    Plaskett reflector + CCD.
682 Kanab.  Observer E. Sheridan.  0.25-m f/4 Schmidt-Cassegrain + CCD.
704 Lincoln Laboratory ETS, New Mexico.  Observers M. Blythe, F. Shelly,
    M. Bezpalko, M. Elowitz, R. Huber, L. Manguso.  Measurers J. Stuart,
    R. Sayer, J. B. Evans, H. Viggh.  1.0-m f/2.15 reflector + CCD.
719 Etscorn Observatory.  Observer D. A. Klinglesmith III.  0.355-m
    Schmidt-Cassegrain + CCD.
726 Brainerd.  Observer J. Wentworth.  0.28-m Schmidt-Cassegrain + CCD.
739 Sunflower Observatory, Olathe.  Observer L. Robinson.  0.25-m
    Schmidt-Cassegrain + CCD.
900 Moriyama.  Observer Y. Ikari.  0.25-m f/6.3 reflector + CCD.

Orbital elements:
2000 OG
Epoch 2000 July 15.0 TT = JDT 2451740.5                 Williams
M 345.84845              (2000.0)            P               Q
n   0.22817537     Peri.  229.61213     +0.64911717     -0.76068806
a   2.6523054      Node   179.90247     +0.75950998     +0.64816697
e   0.8480374      Incl.   26.59175     -0.04232594     -0.03511777
P   4.32           H   15.9           G   0.15
From 56 observations 2000 July 21-23.

Ephemeris:
2000 OG                  a,e,i = 2.65, 0.85, 27                  q = 0.4031
Date    TT    R. A. (2000) Decl.     Delta      r     Elong.  Phase     V
2000 07 15    18 23.37   +50 28.8    0.570    1.296   106.1    48.9    17.1
2000 07 20    17 52.03   +54 05.9    0.519    1.222   100.5    54.9    16.9
2000 07 25    17 08.62   +57 22.0    0.473    1.146    93.5    62.2    16.8
2000 07 30    16 09.40   +59 39.8    0.432    1.068    85.0    71.3    16.7
2000 08 04    14 54.46   +59 56.7    0.399    0.988    74.8    82.3    16.8
2000 08 09    13 33.45   +57 05.4    0.376    0.906    62.8    95.5    17.0
2000 08 14    12 21.23   +50 44.7    0.366    0.823    49.4   110.9    17.5

2000 12 22    13 56.80   -10 46.0    2.062    1.778    59.5    28.5    20.0
2001 01 01    14 07.38   -10 30.9    2.046    1.898    67.4    28.6    20.1
2001 01 11    14 15.56   -09 59.7    2.015    2.014    75.8    28.3    20.2
2001 01 21    14 21.13   -09 11.1    1.971    2.125    85.0    27.5    20.2
2001 01 31    14 23.83   -08 03.6    1.921    2.231    94.8    26.1    20.2
2001 02 10    14 23.42   -06 36.3    1.869    2.334   105.4    24.1    20.2
2001 02 20    14 19.74   -04 49.4    1.821    2.433   116.8    21.3    20.2
2001 03 02    14 12.77   -02 44.8    1.786    2.528   128.8    17.8    20.1
2001 03 12    14 02.85   -00 27.9    1.771    2.621   141.3    13.7    20.0
2001 03 22    13 50.64   +01 53.0    1.781    2.710   153.5     9.4    19.9
2001 04 01    13 37.15   +04 07.5    1.823    2.796   163.7     5.8    19.9
2001 04 11    13 23.63   +06 05.3    1.898    2.879   165.6     5.0    20.0
2001 04 21    13 11.17   +07 39.3    2.006    2.960   157.7     7.4    20.3
2001 05 01    13 00.64   +08 46.6    2.144    3.038   147.0    10.4    20.6
2001 05 11    12 52.52   +09 27.9    2.307    3.114   136.1    13.0    20.9
2001 05 21    12 46.92   +09 46.4    2.490    3.188   125.7    14.9    21.2
2001 05 31    12 43.75   +09 46.0    2.688    3.259   115.8    16.3    21.5
2001 06 10    12 42.76   +09 30.6    2.896    3.328   106.4    17.0    21.7
2001 06 20    12 43.67   +09 03.7    3.110    3.395    97.5    17.3    21.9

Gareth V. Williams           (C) Copyright 2000 MPC           M.P.E.C. 2000-O15

Read MPEC 2000-O14 Read MPEC 2000-O16


Our Web policy. Index to the CBAT/MPC/ICQ pages.


Valid HTML 4.01!